[Iaude] MPEC R116: 2016 RW19 [a=1.27,e=0.49,i=8.2,H=21.0]

mpec at mpc.eps.harvard.edu mpec at mpc.eps.harvard.edu
Sat Sep 10 21:55:16 EDT 2016


M.P.E.C. 2016-R116                               Issued 2016 Sept. 11, 01:52 UT
 
     The Minor Planet Electronic Circulars contain information on unusual
         minor planets and routine data on comets.  They are published
    on behalf of Division F of the International Astronomical Union by the
          Minor Planet Center, Smithsonian Astrophysical Observatory,
                          Cambridge, MA 02138, U.S.A.

             Prepared using the Tamkin Foundation Computer Network

                              MPC at CFA.HARVARD.EDU
            URL http://www.minorplanetcenter.net/    ISSN 1523-6714


                                   2016 RW19
 
Observations:
     K16R19W* C2016 09 07.24541 20 12 38.257+03 13 43.95         21.3 rLER116F51
     K16R19W  C2016 09 07.27005 20 12 34.012+03 13 33.57         21.1 rLER116F51
     K16R19W  C2016 09 07.28237 20 12 31.864+03 13 28.45         20.9 rLER116F51
     K16R19W KC2016 09 07.91916620 10 46.41 +03 09 15.5          20.4 RqER116K92
     K16R19W KC2016 09 07.92371620 10 45.62 +03 09 13.6          20.7 RqER116K92
     K16R19W KC2016 09 07.92553520 10 45.30 +03 09 12.6          20.6 RqER116K92
     K16R19W |C2016 09 07.98937 20 10 36.18 +03 08 44.2          20.4 VuER116807
     K16R19W |C2016 09 07.99601 20 10 35.10 +03 08 41.6          20.4 VuER116807
     K16R19W |C2016 09 08.00267 20 10 33.90 +03 08 38.9          20.3 VuER116807
     K16R19W _C2016 09 08.34321220 09 37.835+03 05 55.12         20.5 RtER116568
     K16R19W _C2016 09 08.34424520 09 37.658+03 05 54.63         20.7 RtER116568
     K16R19W  C2016 09 08.81880 20 08 21.65 +03 02 18.0          21.7 VSER116033
     K16R19W  C2016 09 08.82152 20 08 21.18 +03 02 16.3          22.2 VSER116033
     K16R19W  C2016 09 08.82422 20 08 20.68 +03 02 15.6          22.0 VSER116033
     K16R19W  C2016 09 08.82694 20 08 20.28 +03 02 14.7          22.3 VSER116033
     K16R19W  C2016 09 08.82965 20 08 19.80 +03 02 12.3          21.7 VSER116033
     K16R19W  C2016 09 08.83237 20 08 19.40 +03 02 12.0          22.0 VSER116033
     K16R19W  C2016 09 08.89329 20 08 09.31 +03 01 45.1          21.3 VSER116033
     K16R19W  C2016 09 08.89600 20 08 08.86 +03 01 44.0          22.4 VSER116033
     K16R19W  C2016 09 08.89872 20 08 08.44 +03 01 42.6          21.9 VSER116033
     K16R19W  C2016 09 08.90142 20 08 07.97 +03 01 41.2          21.9 VSER116033
     K16R19W  C2016 09 08.90414 20 08 07.53 +03 01 39.8          21.6 VSER116033
     K16R19W  C2016 09 08.90685 20 08 07.10 +03 01 38.5          21.5 VSER116033
     K16R19W HC2016 09 09.15545 20 07 27.96 +02 59 53.0                oER116691
     K16R19W HC2016 09 09.17215 20 07 25.13 +02 59 45.5                oER116691
     K16R19W 1C2016 09 09.21208 20 07 18.74 +02 59 24.8                 ER116658
     K16R19W 1C2016 09 09.21425 20 07 18.40 +02 59 24.0                 ER116658
     K16R19W 1C2016 09 09.21642 20 07 18.05 +02 59 23.0                 ER116658
 
Observer details:
033 Karl Schwarzschild Observatory, Tautenburg.  Observers B. Stecklum,
    C. Hoegner.  Measurer B. Stecklum.  1.34-m f/3 Schmidt + CCD.
568 Mauna Kea.  Observers R. J. Wainscoat, P. Forshay.  Measurers M. Micheli,
    R. J. Wainscoat.  3.6-m Canada-France-Hawaii Telescope + CCD.
658 National Research Council of Canada.  Observer D. D. Balam.  1.82-m
    Plaskett telescope + CCD.
691 Steward Observatory, Kitt Peak.  Observer J. V. Scotti.  0.9-m f/3
    reflector + CCD.
807 Cerro Tololo.  Observers T. Linder, R. Holmes.  0.61-m f/6.5 astrograph
    + CCD.
F51 Pan-STARRS 1, Haleakala.  Observers B. Gibson, T. Goggia, N. Primak,
    A. Schultz, M. Willman.  Measurers K. Chambers, S. Chastel, L. Denneau,
    H. Flewelling, M. Huber, E. Lilly, E. Magnier, R. Wainscoat, C. Waters,
    R. Weryk.  1.8-m Ritchey-Chretien + CCD.
K92 Sutherland-LCOGT B.  Observers T. Lister, S. Greenstreet, E. Gomez.
    Measurer T. Lister.  1.0-m f/8 Ritchey-Chretien + CCD.
 
Orbital elements:
2016 RW19                                                Earth MOID = 0.1409 AU
Epoch 2016 July 31.0 TT = JDT 2457600.5                 MPC
M 261.80257              (2000.0)            P               Q
n   0.69174669     Peri.  187.83695     -0.18890420     -0.97149694
a   1.2662068      Node   273.13403     +0.90856371     -0.11757608
e   0.4857772      Incl.    8.24601     +0.37259520     -0.20583866
P   1.42           H   21.0           G   0.15           U   9
Residuals in seconds of arc
160907 F51  0.4-  0.0     160908 568  0.5-  0.1-    160908 033  0.4-  0.2-
160907 F51  0.2-  0.1-    160908 033  0.1-  0.1+    160908 033  0.3-  0.3-
160907 F51  0.5-  0.1-    160908 033  0.4-  0.4-    160908 033  0.0   0.4-
160907 K92  0.2-  0.1+    160908 033  1.2-  0.1+    160909 691  0.1+  0.7-
160907 K92  0.5-  0.2+    160908 033  0.4-  0.4+    160909 691  0.7-  0.8-
160907 K92  0.7-  0.0     160908 033  0.9-  0.8-    160909 658  0.5-  0.9+
160907 807  0.3-  0.4-    160908 033  0.1-  0.1+    160909 658  0.3-  1.0+
160907 807  0.4+  0.2-    160908 033  0.4-  0.1+    160909 658  0.2-  1.0+
160908 807  0.7-  0.0     160908 033  0.5-  0.2+
160908 568  0.5-  0.1-    160908 033  0.0   0.0

Ephemeris:
2016 RW19                a,e,i = 1.27, 0.49, 8                   q = 0.6511
Date    TT    R. A. (2000) Decl.     Delta      r     Elong.  Phase     V
2016 08 12    21 29 13.8 +04 10 04   0.5333  1.5272   160.9    12.6    21.3
...
2016 08 27    20 45 53.8 +04 12 25   0.4661  1.4383   151.9    19.3    21.1
...
2016 09 04    20 21 49.4 +03 35 06   0.4493  1.3866   140.9    27.3    21.2
...
2016 09 10    20 05 14.7 +02 53 43   0.4437  1.3458   132.2    33.7    21.3
2016 09 11    20 02 40.3 +02 46 01   0.4432  1.3389   130.8    34.7    21.3
2016 09 12    20 00 09.5 +02 38 09   0.4429  1.3319   129.3    35.8    21.3
...
2016 09 18    19 46 27.4 +01 48 15   0.4426  1.2889   120.8    42.0    21.4
...
2016 09 26    19 32 03.2 +00 38 36   0.4450  1.2292   110.2    50.0    21.5
...
2016 10 11    19 16 03.9 -01 25 27   0.4471  1.1103    92.3    63.9    21.7

A. U. Tomatic                (C) Copyright 2016 MPC           M.P.E.C. 2016-R116




More information about the Iaude mailing list